• In Netherlands
  • List of Countries
  • For 7 days
  • Water Temperature
  • Satellite Maps
  • Weather Map
  • Weather Widgets
  • user-avatar
    Login

    Hourly Weather Darwin

    Today, 28 April, Friday

    Time Temperature Precipitation Wind Pressure Humidity
    00:00 +24°C° 0.4 mm 8 mps 759 mmHg 83%
    01:00 +24°C° 0 mm 8 mps 758 mmHg 81%
    02:00 +24°C° 0 mm 8 mps 758 mmHg 78%
    03:00 +24°C° 0 mm 6 mps 758 mmHg 78%
    04:00 +24°C° 0 mm 7 mps 758 mmHg 74%
    05:00 +24°C° 0 mm 7 mps 758 mmHg 71%
    06:00 +24°C° 0 mm 7 mps 759 mmHg 67%
    07:00 +26°C° 0 mm 8 mps 759 mmHg 64%
    08:00 +27°C° 0 mm 8 mps 759 mmHg 61%
    09:00 +28°C° 0 mm 9 mps 760 mmHg 58%
    10:00 +29°C° 0 mm 8 mps 760 mmHg 54%
    11:00 +31°C° 0 mm 8 mps 759 mmHg 50%
    12:00 +32°C° 0 mm 7 mps 759 mmHg 46%
    13:00 +32°C° 0 mm 7 mps 759 mmHg 46%
    14:00 +33°C° 0 mm 6 mps 758 mmHg 46%
    15:00 +33°C° 0 mm 5 mps 758 mmHg 46%
    16:00 +32°C° 0 mm 5 mps 758 mmHg 50%
    17:00 +30°C° 0 mm 4 mps 758 mmHg 55%
    18:00 +28°C° 0 mm 4 mps 758 mmHg 59%
    19:00 +28°C° 0 mm 4 mps 758 mmHg 58%
    20:00 +28°C° 0 mm 4 mps 759 mmHg 56%
    21:00 +27°C° 0 mm 4 mps 759 mmHg 54%
    22:00 +27°C° 0 mm 5 mps 759 mmHg 53%
    23:00 +26°C° 0 mm 5 mps 759 mmHg 52%

    Tomorrow, 29 April, Saturday

    Time Temperature Precipitation Wind Pressure Humidity
    00:00 +26°C° 0 mm 5 mps 759 mmHg 51%
    01:00 +24°C° 0 mm 6 mps 759 mmHg 49%
    02:00 +24°C° 0 mm 6 mps 758 mmHg 47%
    03:00 +23°C° 0 mm 6 mps 758 mmHg 45%
    04:00 +23°C° 0 mm 6 mps 758 mmHg 45%
    05:00 +22°C° 0 mm 6 mps 758 mmHg 44%
    06:00 +22°C° 0 mm 6 mps 759 mmHg 44%
    07:00 +23°C° 0 mm 6 mps 759 mmHg 44%
    08:00 +24°C° 0 mm 6 mps 759 mmHg 44%
    09:00 +26°C° 0 mm 7 mps 760 mmHg 44%
    10:00 +27°C° 0 mm 6 mps 759 mmHg 42%
    11:00 +29°C° 0 mm 6 mps 759 mmHg 40%
    12:00 +30°C° 0 mm 5 mps 759 mmHg 38%
    13:00 +32°C° 0 mm 5 mps 758 mmHg 39%
    14:00 +33°C° 0 mm 4 mps 758 mmHg 40%
    15:00 +33°C° 0 mm 4 mps 757 mmHg 41%
    16:00 +31°C° 0 mm 3 mps 757 mmHg 47%
    17:00 +29°C° 0 mm 3 mps 758 mmHg 53%
    18:00 +28°C° 0 mm 3 mps 758 mmHg 58%
    19:00 +27°C° 0 mm 3 mps 758 mmHg 58%
    20:00 +27°C° 0 mm 2 mps 759 mmHg 57%
    21:00 +26°C° 0 mm 2 mps 760 mmHg 57%
    22:00 +26°C° 0 mm 2 mps 759 mmHg 56%
    23:00 +26°C° 0 mm 2 mps 759 mmHg 55%

    Day after tomorrow, 30 April, Sunday

    Time Temperature Precipitation Wind Pressure Humidity
    00:00 +25°C° 0 mm 3 mps 759 mmHg 54%
    01:00 +25°C° 0 mm 3 mps 759 mmHg 55%
    02:00 +25°C° 0 mm 3 mps 759 mmHg 55%
    03:00 +24°C° 0 mm 3 mps 758 mmHg 55%
    04:00 +24°C° 0 mm 3 mps 758 mmHg 55%
    05:00 +23°C° 0 mm 4 mps 758 mmHg 55%
    06:00 +23°C° 0 mm 4 mps 759 mmHg 54%
    07:00 +25°C° 0 mm 4 mps 759 mmHg 56%
    08:00 +26°C° 0 mm 4 mps 759 mmHg 57%
    09:00 +27°C° 0 mm 5 mps 760 mmHg 59%
    10:00 +29°C° 0 mm 4 mps 759 mmHg 55%
    11:00 +32°C° 0 mm 4 mps 759 mmHg 52%
    12:00 +33°C° 0 mm 4 mps 759 mmHg 48%
    13:00 +34°C° 0 mm 3 mps 758 mmHg 48%
    14:00 +34°C° 0 mm 3 mps 757 mmHg 48%
    15:00 +34°C° 0 mm 3 mps 757 mmHg 48%
    16:00 +32°C° 0 mm 2 mps 757 mmHg 55%
    17:00 +30°C° 0 mm 2 mps 757 mmHg 62%
    18:00 +29°C° 0 mm 2 mps 758 mmHg 68%
    19:00 +28°C° 0 mm 2 mps 758 mmHg 68%
    20:00 +27°C° 0 mm 2 mps 759 mmHg 68%
    21:00 +27°C° 0 mm 1 mps 759 mmHg 67%
    22:00 +26°C° 0 mm 2 mps 759 mmHg 64%
    23:00 +26°C° 0 mm 2 mps 759 mmHg 61%

    1 May, Monday

    Time Temperature Precipitation Wind Pressure Humidity
    00:00 +26°C° 0 mm 2 mps 759 mmHg 58%
    01:00 +26°C° 0 mm 2 mps 759 mmHg 57%
    02:00 +26°C° 0 mm 2 mps 758 mmHg 55%
    03:00 +25°C° 0 mm 2 mps 758 mmHg 54%
    04:00 +25°C° 0 mm 2 mps 758 mmHg 54%
    05:00 +25°C° 0 mm 3 mps 759 mmHg 54%
    06:00 +24°C° 0 mm 3 mps 759 mmHg 54%
    07:00 +26°C° 0 mm 3 mps 759 mmHg 57%
    08:00 +27°C° 0 mm 3 mps 759 mmHg 59%
    09:00 +29°C° 0 mm 3 mps 760 mmHg 62%
    10:00 +30°C° 0 mm 3 mps 759 mmHg 59%
    11:00 +33°C° 0 mm 3 mps 759 mmHg 56%
    12:00 +34°C° 0 mm 2 mps 759 mmHg 53%
    13:00 +35°C° 0 mm 2 mps 758 mmHg 52%
    14:00 +35°C° 0 mm 2 mps 757 mmHg 52%
    15:00 +35°C° 0 mm 2 mps 757 mmHg 52%
    16:00 +34°C° 0.1 mm 2 mps 757 mmHg 59%
    17:00 +31°C° 0.1 mm 2 mps 758 mmHg 67%
    18:00 +29°C° 0.1 mm 2 mps 758 mmHg 74%
    19:00 +29°C° 0.1 mm 2 mps 758 mmHg 77%
    20:00 +28°C° 0.1 mm 2 mps 759 mmHg 79%
    21:00 +28°C° 0.1 mm 1 mps 759 mmHg 81%
    22:00 +27°C° 0 mm 1 mps 759 mmHg 82%
    23:00 +27°C° 0 mm 1 mps 759 mmHg 83%

    2 May, Tuesday

    Time Temperature Precipitation Wind Pressure Humidity
    00:00 +27°C° 0 mm 1 mps 759 mmHg 85%
    01:00 +26°C° 0.2 mm 1 mps 758 mmHg 85%
    02:00 +26°C° 0.2 mm 1 mps 758 mmHg 85%
    03:00 +26°C° 0.2 mm 1 mps 758 mmHg 85%
    04:00 +25°C° 0 mm 1 mps 758 mmHg 84%
    05:00 +25°C° 0 mm 1 mps 758 mmHg 84%
    06:00 +25°C° 0 mm 1 mps 759 mmHg 84%
    07:00 +27°C° 0 mm 1 mps 759 mmHg 78%
    08:00 +28°C° 0 mm 1 mps 759 mmHg 72%
    09:00 +30°C° 0 mm 1 mps 760 mmHg 67%
    10:00 +32°C° 0 mm 1 mps 759 mmHg 62%
    11:00 +33°C° 0 mm 1 mps 759 mmHg 56%
    12:00 +34°C° 0 mm 1 mps 758 mmHg 51%
    13:00 +35°C° 0.6 mm 2 mps 758 mmHg 53%
    14:00 +35°C° 0.6 mm 2 mps 757 mmHg 54%
    15:00 +34°C° 0.6 mm 2 mps 757 mmHg 55%
    16:00 +32°C° 0.1 mm 2 mps 757 mmHg 62%
    17:00 +30°C° 0.1 mm 2 mps 757 mmHg 70%
    18:00 +29°C° 0.1 mm 2 mps 758 mmHg 77%
    19:00 +28°C° 0.2 mm 1 mps 758 mmHg 78%
    20:00 +28°C° 0.2 mm 1 mps 758 mmHg 79%
    21:00 +27°C° 0.2 mm 1 mps 759 mmHg 80%
    22:00 +27°C° 0.2 mm 1 mps 759 mmHg 82%
    23:00 +27°C° 0.2 mm 1 mps 758 mmHg 83%

    3 May, Wednesday

    Time Temperature Precipitation Wind Pressure Humidity
    00:00 +26°C° 0.2 mm 1 mps 758 mmHg 84%
    01:00 +26°C° 0.7 mm 1 mps 758 mmHg 85%
    02:00 +26°C° 0.7 mm 1 mps 758 mmHg 85%
    03:00 +23°C° 0.7 mm 0 mps 758 mmHg 86%
    04:00 +23°C° 0.4 mm 0 mps 758 mmHg 85%
    05:00 +25°C° 0.4 mm 1 mps 758 mmHg 85%
    06:00 +25°C° 0.4 mm 1 mps 759 mmHg 85%
    07:00 +27°C° 0.3 mm 1 mps 759 mmHg 81%
    08:00 +28°C° 0.3 mm 2 mps 759 mmHg 77%
    09:00 +29°C° 0.3 mm 2 mps 759 mmHg 72%
    10:00 +31°C° 0 mm 2 mps 759 mmHg 66%
    11:00 +32°C° 0 mm 2 mps 759 mmHg 60%
    12:00 +34°C° 0 mm 2 mps 758 mmHg 54%
    13:00 +34°C° 0.1 mm 2 mps 758 mmHg 54%
    14:00 +34°C° 0.1 mm 2 mps 757 mmHg 55%
    15:00 +33°C° 0.1 mm 1 mps 757 mmHg 55%
    16:00 +32°C° 0 mm 1 mps 757 mmHg 61%
    17:00 +30°C° 0 mm 1 mps 758 mmHg 67%
    18:00 +29°C° 0 mm 1 mps 758 mmHg 72%
    19:00 +29°C° 0.1 mm 1 mps 758 mmHg 73%
    20:00 +28°C° 0.1 mm 1 mps 759 mmHg 74%
    21:00 +27°C° 0.1 mm 1 mps 759 mmHg 75%
    22:00 +27°C° 0.6 mm 1 mps 759 mmHg 77%
    23:00 +26°C° 0.6 mm 1 mps 759 mmHg 79%
    Show more